CZ-6A DEB, 54551

Orbit data source: Space-Track

CZ-6A DEB, 54551 is space debris in SSO originally from a launch on Fri, 11 Nov 2022 UTC launched from the Taiyaun Space Center, China (TSC). Debris objects in space refer to the collection of defunct objects orbiting the Earth. Examples of debris include non-operational satellites, rocket bodies, and fragments generated from explosions, collisions, or faulty payload assembly.

Loading next visibility...
Identifier
54551, 2022-151LB
Orbit
SSO
Country
Flag of CNCN / PRC
Related business
Manufacturer
SAST
Mission
Spacecraft
Bus & Motor
Unknown
Mass
Unknown
Launch date (UTC)
2022-11-11 (3 years ago)
Launch vehicle
Unknown
Launch site
Taiyaun Space Center, China (TSC)
Object type
Payload
Rocket body
Debris
Shape & HBR
Unknown shape, 0.4 m
Radar Cross Section
Medium (>0.1 m² and <1 m²)

Expand to show TLE details & history
Last TLE update: 17 hours ago

TLE from 17 hours ago
0 CZ-6A DEB
1 54551U 22151LB  26129.87215431  .00000553  00000-0  38916-3 0  9995
2 54551  98.8760 105.1572 0104960 161.5832 198.9177 13.99538570177891
Epoch: 2026-05-09T20:55Z
TLE epoch observation values (Epoch: 2026-05-09T20:55:54.132Z)
Latitude
-0.00007°
Longitude
-76.5017°
Altitude
970.592 km
Speed
7.33 km/s
True Right ascension
07h 00m 37s
True Declination
0° 00' 00"
Sunlit
Object was in daylight at epoch
Visualization orbit readout
Latitude
Unknown
Longitude
Unknown
Altitude
Unknown
Speed
Unknown
Apparent Right ascension
Unknown
Apparent Declination
Unknown
Sunlit
N/A
Visualization observer readout
Local Sidereal Time
22:08:59
Azimuth
Unknown
Elevation
Unknown
Doppler factor
Unknown
Orbital elements
Apogee altitude
968.9 km
Perigee altitude
816.273 km
Semi-major axis
7,270.724 km
Eccentricity
0.0105
Inclination
98.876°
RAAN
105.1572°
Arg. of periapsis
161.5832°
True anomaly
198.53254°
Mean anomaly
198.9177°
Eccentric anomaly
198.72465°
Mean motion
3.50088 °/min
Orbital period
102.83 mins
BSTAR
0.00038916
Loading maneuver chart data...
Computing Atmospheric mass density...
Loading historical data...
Loading historical data...
Loading historical data...
Loading historical data...
Loading historical data...
Loading historical data...
Loading historical data...

Documentation

Showing up to 5 results
|